This is the latest recevied weather packets stored in our database for station/object KE5WTH-14. If no packets are shown the sender has not sent any weather packets the latest 10 day(s).
| Time | Temp. | Humidity | Pressure | Rain* | Wind** | Luminosity | Snow |
|---|---|---|---|---|---|---|---|
| 1788724357 | 36.67° C | 45% | 1012.8 hPa | 0 mm | - | 872 W/m² | - |
| 1788724298 | 36.67° C | 46% | 1012.8 hPa | 0 mm | - | 872 W/m² | - |
| 1788724236 | 36.67° C | 46% | 1012.9 hPa | 0 mm | - | 877 W/m² | - |
| 1788724178 | 36.67° C | 46% | 1012.9 hPa | 0 mm | - | 877 W/m² | - |
| 1788724116 | 36.67° C | 47% | 1013 hPa | 0 mm | - | 879 W/m² | - |
| 1788724058 | 36.11° C | 48% | 1013 hPa | 0 mm | - | 881 W/m² | - |
| 1788724013 | 36.11° C | 48% | 1012.9 hPa | 0 mm | - | 881 W/m² | - |
| 1788723982 | 35.56° C | 47% | 1013 hPa | 0 mm | - | 477 W/m² | - |
| 1788723954 | 36.11° C | 47% | 1013 hPa | 0 mm | - | 477 W/m² | - |
| 1788723925 | 36.11° C | 46% | 1013 hPa | 0 mm | - | 477 W/m² | - |
| 1788723752 | 36.11° C | 46% | 1013.1 hPa | 0 mm | - | 153 W/m² | - |
| 1788723706 | 36.67° C | 46% | 1012.9 hPa | 0 mm | - | 202 W/m² | - |
| 1788723676 | 36.67° C | 46% | 1013 hPa | 0 mm | - | 633 W/m² | - |
| 1788723647 | 36.67° C | 46% | 1013 hPa | 0 mm | - | 633 W/m² | - |
| 1788723618 | 36.67° C | 46% | 1013 hPa | 0 mm | - | 376 W/m² | - |
| 1788723436 | 36.67° C | 47% | 1013 hPa | 0 mm | - | 985 W/m² | - |
| 1788723374 | 36.67° C | 46% | 1013 hPa | 0 mm | - | 985 W/m² | - |
| 1788723312 | 36.67° C | 46% | 1013 hPa | 0 mm | - | 985 W/m² | - |
| 1788723249 | 36.67° C | 46% | 1013 hPa | 0 mm | - | 981 W/m² | - |
| 1788723190 | 36.67° C | 47% | 1013.1 hPa | 0 mm | - | 290 W/m² | - |
| 1788723126 | 36.67° C | 47% | 1013.3 hPa | 0 mm | - | 290 W/m² | - |
| 1788723077 | 36.67° C | 47% | 1013.1 hPa | 0 mm | - | 237 W/m² | - |
| 1788723048 | 36.67° C | 47% | 1013.1 hPa | 0 mm | - | 965 W/m² | - |
| 1788723017 | 36.67° C | 48% | 1013.1 hPa | 0 mm | - | 957 W/m² | - |
| 1788722982 | 36.67° C | 47% | 1013.1 hPa | 0 mm | - | 914 W/m² | - |
* Rain latest hour (hover to see other rain measurements)
** Current wind speed in m/s (hover to see current wind gust speed)